Location: Bellflower
(33.8817°N, 118.1170°W)
Time: 13:03:26
(UTC+00:00)

Delta 2 Rocket - Pass Details

Date: 23 November 2020
Orbit: 415 x 805 km, 35.6° (Epoch: 22 January)

Event Time Altitude Azimuth Distance (km) Brightness Sun altitude
Exits shadow 13:55:31 10° 282° (WNW) 2,034 5.5 -8.0°
Reaches altitude 10° 13:55:35 10° 282° (WNW) 2,006 5.5 -8.0°
Maximum altitude 14:00:13 76° 198° (SSW) 590 3.5 -7.1°
Drops below altitude 10° 14:04:15 10° 111° (ESE) 1,753 7.8 -6.3°
Sets 14:06:20 0° 110° (ESE) 2,578 9.7 -5.9°
